GMI2796 EDDG-LEPA

Flight info

Callsign GMI2796
Flight time N/A
Altitude 33000
Route DOMEG Z841 GMH Q603 TESGA L603 BOMBI DCT GIGET/N0449F340 DCT ABUKA DCT KRH DCT NATOR/N0449F350 DCT LUTIX DCT BENOT DCT NEMOS DCT GEVEA DCT INCUS DCT BALSI DCT RETNO DCT TUPOX DCT MTG DCT DIVKO DCT VATIR N852 VERSO L129 LUNIK
Aircraft A321/M-VGDW/C

Departure

Time 2026-04-26 11:11
Airport Münster Osnabrück Airport (EDDG)

Arrival

Time N/A
Airport Palma de Mallorca Airport (LEPA)
Time Latitude Longitude Altitude Speed Heading
2026-04-26 10:51 52.13131 7.69207 163 ft 0 kts 198°
2026-04-26 11:06 52.13117 7.69201 164 ft 0 kts 194°
2026-04-26 11:06 52.13114 7.69196 164 ft 3 kts 230°
2026-04-26 11:07 52.13116 7.69127 164 ft 7 kts 279°
2026-04-26 11:07 52.13133 7.69034 163 ft 9 kts 298°
2026-04-26 11:07 52.13179 7.68945 163 ft 11 kts 330°
2026-04-26 11:07 52.13256 7.68903 163 ft 12 kts 343°
2026-04-26 11:08 52.13335 7.68853 163 ft 12 kts 319°
2026-04-26 11:08 52.13342 7.68712 160 ft 14 kts 253°
2026-04-26 11:08 52.13311 7.68543 159 ft 15 kts 254°
2026-04-26 11:08 52.13273 7.68387 159 ft 16 kts 249°
2026-04-26 11:09 52.13231 7.68204 159 ft 18 kts 250°
2026-04-26 11:09 52.13184 7.67986 160 ft 22 kts 251°
2026-04-26 11:09 52.13103 7.67595 160 ft 55 kts 252°
2026-04-26 11:09 52.13036 7.67140 160 ft 30 kts 297°
2026-04-26 11:10 52.13129 7.67044 160 ft 14 kts
2026-04-26 11:10 52.13184 7.67154 163 ft 0 kts 72°
2026-04-26 11:10 52.13186 7.67162 163 ft 1 kts 72°
2026-04-26 11:10 52.13265 7.67547 162 ft 74 kts 71°
2026-04-26 11:11 52.13511 7.68713 163 ft 140 kts 71°
2026-04-26 11:11 52.13862 7.70369 494 ft 163 kts 71°
2026-04-26 11:11 52.14217 7.72159 1121 ft 173 kts 72°
2026-04-26 11:11 52.14624 7.74120 1790 ft 199 kts 70°
2026-04-26 11:12 52.15123 7.76429 2429 ft 233 kts 70°
2026-04-26 11:12 52.15636 7.79050 3253 ft 259 kts 78°
2026-04-26 11:12 52.15583 7.82077 3969 ft 278 kts 104°
2026-04-26 11:12 52.14525 7.84708 4626 ft 291 kts 141°
2026-04-26 11:13 52.12609 7.85880 5313 ft 300 kts 178°
2026-04-26 11:13 52.10582 7.85516 6380 ft 292 kts 190°
2026-04-26 11:13 52.08579 7.85242 7284 ft 291 kts 183°
2026-04-26 11:13 52.06585 7.85165 8178 ft 289 kts 182°
2026-04-26 11:14 52.04570 7.85070 9050 ft 288 kts 184°
2026-04-26 11:14 52.02567 7.84922 9746 ft 292 kts 185°
2026-04-26 11:14 52.00533 7.84725 10443 ft 296 kts 186°
2026-04-26 11:14 51.98488 7.84497 11140 ft 299 kts 186°
2026-04-26 11:15 51.96404 7.84255 11838 ft 302 kts 185°
2026-04-26 11:15 51.94295 7.84345 12532 ft 305 kts 177°
2026-04-26 11:15 51.92152 7.84683 13234 ft 307 kts 176°
2026-04-26 11:15 51.90051 7.85044 13920 ft 308 kts 176°
2026-04-26 11:16 51.87898 7.85394 14502 ft 314 kts 176°
2026-04-26 11:16 51.85692 7.85731 15061 ft 319 kts 176°
2026-04-26 11:16 51.83442 7.86058 15623 ft 324 kts 177°
2026-04-26 11:16 51.81218 7.86371 16173 ft 328 kts 177°
2026-04-26 11:17 51.78932 7.86688 16720 ft 333 kts 177°
2026-04-26 11:17 51.76593 7.87008 17275 ft 337 kts 177°
2026-04-26 11:17 51.74264 7.87327 17837 ft 340 kts 177°
2026-04-26 11:17 51.71861 7.87653 18401 ft 343 kts 177°
2026-04-26 11:18 51.69491 7.87973 18950 ft 346 kts 177°
2026-04-26 11:18 51.67091 7.88297 19503 ft 348 kts 177°
2026-04-26 11:18 51.64697 7.88621 20059 ft 350 kts 177°
2026-04-26 11:18 51.62251 7.88950 20604 ft 352 kts 177°
2026-04-26 11:19 51.59798 7.89279 21059 ft 356 kts 177°
2026-04-26 11:19 51.57341 7.89608 21512 ft 361 kts 177°
2026-04-26 11:19 51.54820 7.89946 21933 ft 366 kts 177°
2026-04-26 11:19 51.52255 7.90289 22343 ft 371 kts 177°
2026-04-26 11:20 51.49678 7.90633 22701 ft 377 kts 177°
2026-04-26 11:20 51.47915 7.90869 22936 ft 381 kts 177°
2026-04-26 11:20 51.44341 7.91345 23420 ft 389 kts 177°
2026-04-26 11:20 51.41647 7.91704 23782 ft 394 kts 177°
2026-04-26 11:21 51.38882 7.92071 24158 ft 399 kts 177°